Tiempo atmosférico en la estación meteorológica de Arganda Del Rey, Madrid (533 m.)



Fecha
DESCASC
Temp. máxima en grados centígrados (hora)
DESCASC
Temp. mínima en grados centígrados (hora)
DESCASC
Temp. media en grados centígrados
DESCASC
Racha de viento máxima en m/sg (hora)
DESCASC
Velocidad máxima media en intervalos de 10 minutos(hora)
DESCASC
Precipitaciones diarias en mm
DESCASC
Precipitaciones de 00:00 a 06:00 en mm
DESCASC
Precipitaciones de 06:00 a 12:00 en mm
DESCASC
Precipitaciones de 12:00 a 18:00 en mm
DESCASC
Precipitaciones de 18:00 a 24:00 en mm
DESCASC
13-01-2021 2.5 (16:00) -14.5 (05:30) -6 2.78 (12:40) 1.67 (12:50) 0 0 0 0 0
12-01-2021 1.3 (16:30) -15.8 (07:30) -7.3 2.22 (04:10) 1.39 (16:50) -- -- -- -- 0
11-01-2021 2.4 (14:50) -12.8 (08:10) -5.2 3.33 (13:30) 2.5 (13:20) -- -- -- -- --
10-01-2021 3.9 (15:50) -4 (07:20) 0 5 (15:10) 2.22 (13:20) -- -- -- -- --
09-01-2021 1.4 (15:30) -0.9 (-00:0) 0.3 5.83 (14:30) 3.61 (14:40) 11.6 0 0.6 9.2 1.8
08-01-2021 1.1 (15:40) -2.4 (-00:0) -0.7 9.44 (18:00) 5.28 (19:20) 1.2 0 0.2 0.4 0.6
07-01-2021 1.9 (11:10) -1.7 (-00:0) 0.1 5.28 (08:30) 3.06 (14:30) 2.6 0 0.2 2.4 0
06-01-2021 8.3 (15:50) -6.1 (-00:0) 1.1 4.17 (15:50) 2.22 (20:20) 0 0 0 0 0
05-01-2021 7.4 (16:20) -5.9 (-00:0) 0.8 4.72 (14:30) 2.22 (14:30) 0 0 0 0 0
04-01-2021 7.9 (15:40) -3.1 (-00:0) 2.4 8.89 (16:00) 6.39 (15:40) 0 0 0 0 0
03-01-2021 8.8 (16:10) -6.1 (-00:0) 1.4 8.61 (14:40) 6.11 (14:20) 0 0 0 0 0
02-01-2021 7.3 (13:40) -3.5 (-00:0) 1.9 9.44 (16:10) 5.28 (16:10) 0 0 0 0 0
01-01-2021 8.5 (14:10) -0.2 (00:00) 4.1 12.22 (14:30) 7.5 (15:00) 0 0 0 0 0
31-12-2020 8.1 (14:30) -3.8 (-00:0) 2.2 10.28 (15:30) 6.94 (15:30) 0.4 0 0 0 0.4
30-12-2020 10.5 (15:40) -0.1 (00:00) 5.2 8.33 (04:30) 5 (04:40) 0 0 0 0 0
29-12-2020 9.7 (16:00) 1.1 (00:00) 5.4 12.78 (14:30) 8.33 (14:30) 0 0 0 0 0
28-12-2020 10.7 (15:40) 2.4 (00:00) 6.5 17.78 (04:10) 12.5 (03:00) 1.6 1.2 0.4 0 0
27-12-2020 8.2 (14:00) -4.8 (-00:0) 1.7 16.67 (23:20) 12.22 (23:20) 0 0 0 0 0
26-12-2020 10 (16:20) -4.1 (-00:0) 3 5.83 (15:00) 2.78 (12:20) 0 0 0 0 0
25-12-2020 9.3 (14:30) -0.3 (00:00) 4.5 10.28 (13:40) 5.83 (13:50) 0 0 0 0 0
24-12-2020 12 (15:50) 5.5 (00:00) 8.8 8.89 (19:20) 5.56 (19:20) 0.4 0 0.4 0 0
23-12-2020 9.7 (16:20) 6.3 (00:00) 8 3.89 (01:10) 2.5 (12:10) 0 0 0 0 0
22-12-2020 9.8 (16:20) 7 (00:00) 8.4 3.89 (11:10) 1.67 (07:10) 0 0 0 0 0
21-12-2020 9.7 (16:50) 3.3 (00:00) 6.5 3.61 (14:10) 2.22 (13:20) 0 0 0 0 0
20-12-2020 11.5 (16:20) 3.5 (00:00) 7.5 5 (14:50) 3.61 (14:40) 0.2 0 0.2 0 0
19-12-2020 9.2 (16:40) 7.4 (00:00) 8.3 3.61 (00:50) 2.5 (01:20) 3.6 0 1 1.8 0.8
18-12-2020 9.6 (15:40) 4.3 (00:00) 7 3.61 (01:00) 2.22 (01:00) 0 0 0 0 0

Gráficas

Temp. máximas Temp. mínimas Temp. medias Precipitaciones Rachas de viento máximas Velocidades máximas media en intervalos de 10 minutos

Datos horarios

Fecha y hora oficial Temperatura (ºC) Velocidad del viento (km/h) Dirección del viento Racha (km/h) Dirección de racha Precipitación (mm) Presión (hPa) Tendencia (hPa) Humedad (%)
2021-01-16 23:00:00 -6 2 Nordeste 5 Nordeste 0 -- -- 92
2021-01-16 22:00:00 -5.1 3 Nordeste 7 Nordeste 0 -- -- 92
2021-01-16 21:00:00 -5.4 0 Calma 7 Nordeste 0 -- -- 89
2021-01-16 20:00:00 -3.1 2 Nordeste 4 Este 0 -- -- 87
2021-01-16 19:00:00 -1.1 3 Este 4 Este 0 -- -- 84
2021-01-16 18:00:00 2.2 0 Calma 7 Sudoeste 0 -- -- 73
2021-01-16 17:00:00 2.5 6 Oeste 9 Oeste 0 -- -- 73
2021-01-16 16:00:00 3.6 0 Calma 13 Sudoeste 0 -- -- 69
2021-01-16 15:00:00 1.4 9 Oeste 14 Sudoeste 0 -- -- 78
2021-01-16 14:00:00 1.3 6 Este 9 Este 0 -- -- 74
2021-01-16 13:00:00 -0.2 2 Nordeste 6 Nordeste 0 -- -- 80
2021-01-16 12:00:00 -2.5 3 Este 6 Este 0 -- -- 93
2021-01-16 11:00:00 -6.2 0 Calma 2 Sudoeste 0 -- -- 96
2021-01-16 10:00:00 -9.2 0 Calma 2 Nordeste 0 -- -- 92
2021-01-16 09:00:00 -10.9 0 Calma 2 Sur 0 -- -- 92
2021-01-16 08:00:00 -10.2 0 Calma 3 Nordeste 0 -- -- 91
2021-01-16 07:00:00 -11.1 0 Calma 0 Calma 0 -- -- 91
2021-01-16 06:00:00 -11.3 0 Calma 0 Calma 0 -- -- 93
2021-01-16 05:00:00 -11.9 0 Calma 3 Nordeste 0 -- -- 93
2021-01-16 04:00:00 -10.7 0 Calma 4 Nordeste 0 -- -- 93
2021-01-16 03:00:00 -11.1 2 Nordeste 4 Nordeste 0 -- -- 93
2021-01-16 02:00:00 -9.5 0 Calma 3 Norte 0 -- -- 93
2021-01-16 01:00:00 -7.5 2 Nordeste 5 Nordeste 0 -- -- 92
2021-01-16 00:00:00 -6.4 2 Nordeste 6 Este 0 -- -- 91
2021-01-15 23:00:00 -6 2 Nordeste 4 Nordeste 0 -- -- 91
2021-01-15 22:00:00 -4.9 0 Calma 6 Nordeste 0 -- -- 90
2021-01-15 21:00:00 -3.8 0 Calma 4 Nordeste 0 -- -- 89
2021-01-15 20:00:00 -2.7 0 Calma 3 Sudoeste 0 -- -- 87
2021-01-15 19:00:00 -0.9 0 Calma 3 Sudoeste 0 -- -- 79
2021-01-15 18:00:00 2.5 0 Calma 6 Sudoeste 0 -- -- 73
2021-01-15 17:00:00 4.4 3 Oeste 8 Oeste 0 -- -- 71
2021-01-15 16:00:00 4.8 4 Oeste 6 Sudoeste 0 -- -- 68
2021-01-15 15:00:00 5.1 0 Calma 2 Sur 0 -- -- 64
2021-01-15 14:00:00 2.6 0 Calma 3 Oeste 0 -- -- 68
2021-01-15 13:00:00 0.4 3 Oeste 5 Oeste 0 -- -- 74
2021-01-15 12:00:00 -2.9 0 Calma 2 Oeste 0 -- -- 84
2021-01-15 11:00:00 -6.7 0 Calma -- -- 0 -- -- 92
2021-01-15 10:00:00 -9.3 0 Calma 2 Sur 0 -- -- 91
2021-01-15 09:00:00 -11.5 0 Calma 3 Nordeste 0 -- -- 91
2021-01-15 08:00:00 -10 0 Calma 5 Nordeste 0 -- -- 90
2021-01-15 07:00:00 -11.1 2 Este 5 Nordeste 0 -- -- 92
2021-01-15 06:00:00 -11.3 0 Calma 3 Nordeste 0 -- -- 91
2021-01-15 05:00:00 -10.1 0 Calma 4 Sudoeste 0 -- -- 92
2021-01-15 04:00:00 -10.7 0 Calma 4 Este 0 -- -- 91
2021-01-15 03:00:00 -10.4 3 Sudeste 5 Sudeste 0 -- -- 92
2021-01-15 02:00:00 -9.6 0 Calma 2 Sudoeste 0 -- -- 93
2021-01-15 01:00:00 -8.9 0 Calma 2 Oeste 0 -- -- 91
2021-01-15 00:00:00 -8.8 0 Calma 3 Sudoeste 0 -- -- 91
2021-01-14 23:00:00 -8.3 0 Calma 5 Oeste 0 -- -- 90
2021-01-14 22:00:00 -7.5 0 Calma 3 Este 0 -- -- 90
2021-01-14 21:00:00 -6.1 0 Calma 4 Sudeste 0 -- -- 85
2021-01-14 20:00:00 -4.9 0 Calma 4 Oeste 0 -- -- 85
2021-01-14 19:00:00 -2.8 3 Oeste 5 Oeste 0 -- -- 75
2021-01-14 18:00:00 0.5 3 Sudoeste 8 Oeste 0 -- -- 68
2021-01-14 17:00:00 2.8 3 Sudoeste 8 Oeste 0 -- -- 63
2021-01-14 16:00:00 2 6 Sudoeste 9 Sudoeste 0 -- -- 67
2021-01-14 15:00:00 2.5 4 Este 8 Este 0 -- -- 60
2021-01-14 14:00:00 1.2 3 Nordeste 5 Norte 0 -- -- 61
2021-01-14 13:00:00 -0.5 2 Este 6 Nordeste 0 -- -- 73
2021-01-14 12:00:00 -2.4 2 Este 5 Nordeste 0 -- -- 79
2021-01-14 11:00:00 -6.7 3 Nordeste 8 Nordeste 0 -- -- 89
2021-01-14 10:00:00 -9.1 0 Calma 5 Nordeste 0 -- -- 94
2021-01-14 09:00:00 -13.1 0 Calma 3 Este 0 -- -- 91
2021-01-14 08:00:00 -12.5 0 Calma 6 Este 0 -- -- 89
2021-01-14 07:00:00 -10.7 3 Este 5 Este 0 -- -- 93
2021-01-14 06:00:00 -11.1 3 Nordeste 6 Este 0 -- -- 90
2021-01-14 05:00:00 -12.2 0 Calma 5 Este 0 -- -- 92
2021-01-14 04:00:00 -10.7 0 Calma 4 Nordeste 0 -- -- 92
2021-01-14 03:00:00 -11 0 Calma 0 Calma 0 -- -- 91
2021-01-14 02:00:00 -10.4 0 Calma 5 Este 0 -- -- 91
2021-01-14 01:00:00 -9.8 0 Calma 4 Nordeste 0 -- -- 90
2021-01-14 00:00:00 -9.1 0 Calma 3 Nordeste 0 -- -- 90
2021-01-13 23:00:00 -7.9 0 Calma 4 Nordeste 0 -- -- 89
2021-01-13 22:00:00 -7.6 0 Calma 2 Este 0 -- -- 88
2021-01-13 21:00:00 -6.7 0 Calma 3 Sur 0 -- -- 87
2021-01-13 20:00:00 -5.5 0 Calma 2 Sudoeste 0 -- -- 82
2021-01-13 19:00:00 -3.1 0 Calma 3 Oeste 0 -- -- 76
2021-01-13 18:00:00 -0.8 3 Oeste 5 Sudoeste 0 -- -- 70
2021-01-13 17:00:00 2.1 4 Sur 7 Sudoeste 0 -- -- 66
2021-01-13 16:00:00 2.5 0 Calma 9 Nordeste 0 -- -- 63
2021-01-13 15:00:00 1.6 0 Calma 5 Sudoeste 0 -- -- 65
2021-01-13 14:00:00 -0.7 3 Sudoeste 8 Nordeste 0 -- -- 66
2021-01-13 13:00:00 -3.3 6 Este 10 Nordeste 0 -- -- 73
2021-01-13 12:00:00 -4.2 0 Calma 6 Nordeste 0 -- -- 80
2021-01-13 11:00:00 -7.7 3 Nordeste 5 Este 0 -- -- 88
2021-01-13 10:00:00 -11.5 0 Calma 3 Nordeste 0 -- -- 92
2021-01-13 09:00:00 -14 0 Calma 3 Nordeste 0 -- -- 89
2021-01-13 08:00:00 -12.8 0 Calma 6 Nordeste 0 -- -- 90
2021-01-13 07:00:00 -12.5 3 Nordeste 6 Nordeste 0 -- -- 90
2021-01-13 06:00:00 -14.4 2 Nordeste 4 Nordeste 0 -- -- 88
2021-01-13 05:00:00 -13.4 0 Calma 6 Nordeste 0 -- -- 89
2021-01-13 04:00:00 -11.1 3 Este 8 Nordeste 0 -- -- 91
2021-01-13 03:00:00 -11 5 Nordeste 10 Este 0 -- -- 92
2021-01-13 02:00:00 -11.4 4 Este 7 Nordeste 0 -- -- 92
2021-01-13 01:00:00 -12 0 Calma 4 Nordeste 0 -- -- 88
2021-01-13 00:00:00 -10.8 0 Calma 8 Nordeste 0 -- -- 90
2021-01-12 23:00:00 -10.9 2 Nordeste 5 Nordeste 0 -- -- 90
2021-01-12 22:00:00 -10.1 0 Calma 4 Nordeste 0 -- -- 87
2021-01-12 21:00:00 -8.5 0 Calma 7 Nordeste 0 -- -- 86
2021-01-12 20:00:00 -7.4 0 Calma 4 Sudeste 0 -- -- 83
2021-01-12 19:00:00 -3.9 0 Calma 2 Noroeste 0 -- -- 79
2021-01-12 18:00:00 -0.5 0 Calma 5 Oeste 0 -- -- 70
2021-01-12 17:00:00 0.2 4 Sur 8 Sur 0 -- -- 67
2021-01-12 16:00:00 0.2 2 Sudoeste 6 Sudoeste 0 -- -- 69
2021-01-12 15:00:00 -0.9 3 Oeste 5 Oeste 0 -- -- 69
2021-01-12 14:00:00 -0.7 2 Sur 4 Sur 0 -- -- 65
2021-01-12 13:00:00 -3.2 0 Calma 2 Sur -- -- -- 71
2021-01-12 12:00:00 -5.2 0 Calma 4 Nordeste -- -- -- 78
2021-01-12 11:00:00 -8.6 3 Este 5 Este -- -- -- 89
2021-01-12 10:00:00 -11.2 2 Nordeste 4 Este -- -- -- 93
2021-01-12 09:00:00 -14.8 2 Nordeste 3 Este -- -- -- 91
2021-01-12 08:00:00 -14.7 0 Calma 4 Nordeste -- -- -- 89
2021-01-12 07:00:00 -14.7 0 Calma 4 Nordeste -- -- -- 90
2021-01-12 06:00:00 -15.6 0 Calma 3 Nordeste -- -- -- 89
2021-01-12 05:00:00 -13.4 2 Nordeste 8 Nordeste -- -- -- 91
2021-01-12 04:00:00 -11.6 4 Nordeste 6 Nordeste -- -- -- 92
2021-01-12 03:00:00 -13.3 3 Nordeste 5 Nordeste -- -- -- 92
2021-01-12 02:00:00 -11.9 2 Nordeste 7 Nordeste -- -- -- 90
2021-01-12 01:00:00 -11.7 4 Este 7 Este -- -- -- 92
2021-01-12 00:00:00 -12.2 0 Calma 4 Nordeste -- -- -- 90
2021-01-11 23:00:00 -10.3 3 Nordeste 4 Nordeste -- -- -- 90
2021-01-11 22:00:00 -9.7 0 Calma 4 Nordeste -- -- -- 90
2021-01-11 21:00:00 -7.9 0 Calma 3 Norte -- -- -- 88
2021-01-11 20:00:00 -6.1 0 Calma 0 Calma -- -- -- 85
2021-01-11 19:00:00 -3.7 0 Calma 5 Sur -- -- -- 83
2021-01-11 18:00:00 -0.2 0 Calma 4 Oeste -- -- -- 72
2021-01-11 17:00:00 1.3 4 Oeste 6 Sudoeste -- -- -- 69
2021-01-11 16:00:00 1.2 7 Sudoeste 9 Sudoeste -- -- -- 72
2021-01-11 15:00:00 2.2 4 Sudoeste 5 Sudoeste -- -- -- 66
2021-01-11 14:00:00 -0.1 4 Nordeste -- -- -- -- -- 69
2021-01-11 13:00:00 -1.3 6 Nordeste -- -- -- -- -- 75
2021-01-11 12:00:00 -3.6 5 Nordeste 11 Este -- -- -- 95
2021-01-11 11:00:00 -5.5 3 Nordeste 7 Este -- -- -- 96
2021-01-11 10:00:00 -9.1 0 Calma 6 Este -- -- -- 94
2021-01-11 09:00:00 -12.2 2 Nordeste 3 Este -- -- -- 91
2021-01-11 08:00:00 -12.4 0 Calma 2 Oeste -- -- -- 90
2021-01-11 07:00:00 -11.7 0 Calma 2 Nordeste -- -- -- 91
2021-01-11 06:00:00 -10.5 0 Calma 2 Sudeste -- -- -- 92
2021-01-11 05:00:00 -9.6 0 Calma 3 Noroeste -- -- -- 93
2021-01-11 04:00:00 -8.7 0 Calma 2 Norte -- -- -- 94
2021-01-11 03:00:00 -8 0 Calma 4 Sudeste -- -- -- 95
2021-01-11 02:00:00 -6.2 0 Calma 8 Oeste -- -- -- 95
2021-01-11 01:00:00 -4.8 3 Sudoeste 8 Nordeste -- -- -- 94
2021-01-11 00:00:00 -3.5 0 Calma 5 Oeste -- -- -- 95
2021-01-10 23:00:00 -2.8 4 Nordeste 8 Nordeste -- -- -- 93
2021-01-10 22:00:00 -3 0 Calma 3 Oeste -- -- -- 94
2021-01-10 21:00:00 -2.7 3 Oeste 5 Oeste -- -- -- 93
2021-01-10 20:00:00 -2.5 4 Sudoeste 6 Oeste -- -- -- 92
2021-01-10 19:00:00 -1 4 Oeste 8 Sudoeste -- -- -- 89
2021-01-10 18:00:00 3.1 0 Calma 11 Nordeste -- -- -- 81
2021-01-10 17:00:00 3.3 6 Nordeste 14 Norte -- -- -- 79
2021-01-10 16:00:00 3.8 5 Nordeste 18 Nordeste -- -- -- 78
2021-01-10 15:00:00 3.3 8 Nordeste 15 Nordeste -- -- -- 81
2021-01-10 14:00:00 0.7 5 Sudoeste 9 Sudoeste 1.6 -- -- 86
2021-01-10 13:00:00 1.7 4 Norte 13 Nordeste 1.4 -- -- 87
2021-01-10 12:00:00 1.4 4 Nordeste 12 Nordeste 1.2 -- -- 93
2021-01-10 11:00:00 -1.8 0 Calma 2 Sudoeste 0.2 -- -- 96
2021-01-10 10:00:00 -2.3 0 Calma -- -- 0 -- -- 97
2021-01-10 09:00:00 -3.4 0 Calma -- -- 0 -- -- 97
2021-01-10 08:00:00 -3.8 0 Calma -- -- 0 -- -- 97
2021-01-10 07:00:00 -3.7 0 Calma -- -- 0 -- -- 95
2021-01-10 06:00:00 -1.9 0 Calma -- -- 0 -- -- 98
2021-01-10 05:00:00 -1 0 Calma -- -- 0 -- -- 98
2021-01-10 04:00:00 -0.6 0 Calma -- -- 0 -- -- 98
2021-01-10 03:00:00 -0.8 0 Calma -- -- 0 -- -- 99
2021-01-10 02:00:00 -1.2 0 Calma 4 Sudeste 0 -- -- 99
2021-01-10 01:00:00 -0.7 3 Sudeste 6 Nordeste 0 -- -- 98
2021-01-10 00:00:00 0.8 3 Nordeste 10 Nordeste 0.4 -- -- 99
2021-01-09 23:00:00 1 5 Nordeste 9 Este 0.4 -- -- 99
2021-01-09 22:00:00 1.2 8 Este 12 Este 0.2 -- -- 99
2021-01-09 21:00:00 0.9 3 Este 7 Nordeste 0.4 -- -- 99
2021-01-09 20:00:00 0.7 4 Nordeste 8 Nordeste 0.2 -- -- 99
2021-01-09 19:00:00 0.3 0 Calma 4 Este 0.2 -- -- 99
2021-01-09 18:00:00 0.6 0 Calma 3 Noroeste 0.8 -- -- 99
2021-01-09 17:00:00 0.5 2 Oeste 10 Sudoeste 1.4 -- -- 99
2021-01-09 16:00:00 0.8 7 Sudoeste 14 Sudeste 2.6 -- -- 98
2021-01-09 15:00:00 1.2 11 Sudeste 21 Este 1.8 -- -- 99
2021-01-09 14:00:00 0.7 5 Nordeste 8 Norte 1.4 -- -- 99
2021-01-09 13:00:00 0.4 0 Calma -- -- 1.2 -- -- 99
2021-01-09 12:00:00 0.1 0 Calma -- -- 0.6 -- -- 99
2021-01-09 11:00:00 -0.4 0 Calma -- -- 0 -- -- 99
2021-01-09 10:00:00 -0.7 0 Calma -- -- 0 -- -- 99
2021-01-09 09:00:00 -0.9 0 Calma -- -- 0 -- -- 98
2021-01-09 08:00:00 -0.9 0 Calma -- -- 0 -- -- 98
2021-01-09 07:00:00 -0.9 0 Calma -- -- 0 -- -- 98
2021-01-09 06:00:00 -0.8 0 Calma -- -- 0 -- -- 98
2021-01-09 05:00:00 -0.8 0 Calma -- -- 0 -- -- 98
2021-01-09 04:00:00 -0.7 0 Calma -- -- 0 -- -- 98
2021-01-09 03:00:00 -0.7 0 Calma -- -- 0 -- -- 98
2021-01-09 02:00:00 -0.5 0 Calma -- -- 0 -- -- 98
2021-01-09 01:00:00 -0.3 0 Calma -- -- 0 -- -- 98
2021-01-09 00:00:00 -0.2 0 Calma -- -- 0 -- -- 98
2021-01-08 23:00:00 -0.1 0 Calma -- -- 0.2 -- -- 97
2021-01-08 22:00:00 -0.1 0 Calma 25 Norte 0 -- -- 97
2021-01-08 21:00:00 -0.1 15 Norte 27 Norte 0.2 -- -- 96
2021-01-08 20:00:00 0.1 16 Norte 31 Norte 0.2 -- -- 95
2021-01-08 19:00:00 0.5 17 Nordeste 34 Norte 0 -- -- 95
2021-01-08 18:00:00 0.9 17 Nordeste 34 Nordeste 0 -- -- 95
2021-01-08 17:00:00 1 12 Nordeste 30 Nordeste 0 -- -- 94
2021-01-08 16:00:00 1 13 Nordeste 29 Nordeste 0 -- -- 94
2021-01-08 15:00:00 0.8 13 Nordeste 25 Norte 0 -- -- 93
2021-01-08 14:00:00 0.2 12 Nordeste 21 Norte 0.4 -- -- 92
2021-01-08 13:00:00 0.2 5 Norte 18 Nordeste 0 -- -- 90
2021-01-08 12:00:00 -0.1 10 Nordeste 20 Norte 0 -- -- 87
2021-01-08 11:00:00 -0.4 8 Nordeste 21 Norte 0 -- -- 85
2021-01-08 10:00:00 -0.4 0 Calma 16 Norte 0.2 -- -- 81
2021-01-08 09:00:00 -0.6 0 Calma -- -- 0 -- -- 80
2021-01-08 08:00:00 -0.9 0 Calma -- -- 0 -- -- 80
2021-01-08 07:00:00 -1.2 0 Calma -- -- 0 -- -- 81
2021-01-08 06:00:00 -1.3 0 Calma -- -- 0 -- -- 80
2021-01-08 05:00:00 -1.3 0 Calma -- -- 0 -- -- 79
2021-01-08 04:00:00 -1.2 0 Calma -- -- 0 -- -- 78
2021-01-08 03:00:00 -1.3 0 Calma -- -- 0 -- -- 79
2021-01-08 02:00:00 -1.4 0 Calma -- -- 0 -- -- 80
2021-01-08 01:00:00 -2.4 0 Calma -- -- 0 -- -- 86
2021-01-08 00:00:00 -1.7 0 Calma -- -- 0 -- -- 84
2021-01-07 23:00:00 -1.6 0 Calma -- -- 0 -- -- 90
2021-01-07 22:00:00 -1.2 0 Calma -- -- 0 -- -- 93
2021-01-07 21:00:00 -0.4 0 Calma 8 Nordeste 0 -- -- 93
2021-01-07 20:00:00 0.2 2 Este 8 Nordeste 0 -- -- 92
2021-01-07 19:00:00 0.7 5 Nordeste 13 Nordeste 0 -- -- 92
2021-01-07 18:00:00 0.8 7 Nordeste 15 Norte 0.2 -- -- 93
2021-01-07 17:00:00 0.7 8 Norte 16 Norte 0.8 -- -- 94
2021-01-07 16:00:00 0.5 9 Norte 17 Norte 0.4 -- -- 93
2021-01-07 15:00:00 0.5 7 Norte 18 Norte 0.6 -- -- 93
2021-01-07 14:00:00 0.6 8 Norte 13 Norte 0.2 -- -- 91
2021-01-07 13:00:00 0.8 6 Norte 10 Norte 0.2 -- -- 88
2021-01-07 12:00:00 1.1 4 Norte 10 Norte 0.2 -- -- 84
2021-01-07 11:00:00 1.8 3 Nordeste 14 Norte 0 -- -- 68
2021-01-07 10:00:00 1.4 8 Nordeste 18 Nordeste 0 -- -- 68
2021-01-07 09:00:00 1.2 9 Nordeste 19 Norte 0 -- -- 69
2021-01-07 08:00:00 1 7 Nordeste 17 Norte 0 -- -- 70
2021-01-07 07:00:00 0.8 8 Nordeste 17 Nordeste 0 -- -- 70
2021-01-07 06:00:00 0.9 4 Norte 12 Nordeste 0 -- -- 69
2021-01-07 05:00:00 0.7 5 Norte 11 Nordeste 0 -- -- 70
2021-01-07 04:00:00 0.6 6 Norte 13 Norte 0 -- -- 70
2021-01-07 03:00:00 0.5 3 Nordeste 10 Norte 0 -- -- 70
2021-01-07 02:00:00 0.8 2 Norte 12 Nordeste 0 -- -- 69
2021-01-07 01:00:00 1.3 5 Norte 14 Norte 0 -- -- 67
2021-01-07 00:00:00 1.5 5 Nordeste 15 Nordeste 0 -- -- 67
2021-01-06 23:00:00 1.6 6 Norte 13 Norte 0 -- -- 67
2021-01-06 22:00:00 1.7 6 Nordeste 15 Nordeste 0 -- -- 63
2021-01-06 21:00:00 1.4 5 Nordeste 9 Este 0 -- -- 67
2021-01-06 20:00:00 2.2 5 Nordeste 9 Este 0 -- -- 64
2021-01-06 19:00:00 3.5 3 Nordeste 7 Nordeste 0 -- -- 61
2021-01-06 18:00:00 5 4 Este 7 Norte 0 -- -- 56
2021-01-06 17:00:00 6.7 4 Norte 8 Norte 0 -- -- 50
2021-01-06 16:00:00 8.1 4 Nordeste 15 Norte 0 -- -- 47
2021-01-06 15:00:00 7.1 3 Nordeste 9 Nordeste 0 -- -- 50
2021-01-06 14:00:00 7.2 2 Este 7 Norte 0 -- -- 53
2021-01-06 13:00:00 5.2 2 Norte 5 Norte 0 -- -- 60
2021-01-06 12:00:00 2.8 2 Oeste 11 Este 0 -- -- 69
2021-01-06 11:00:00 0.6 0 Calma 5 Este 0 -- -- 75
2021-01-06 10:00:00 -2.6 3 Este 6 Este 0 -- -- 85
2021-01-06 09:00:00 -5.8 2 Este 4 Este 0 -- -- 90
2021-01-06 08:00:00 -5.6 3 Este 6 Nordeste 0 -- -- 89
2021-01-06 07:00:00 -5.3 3 Este 6 Este 0 -- -- 90
2021-01-06 06:00:00 -5.3 3 Este 5 Este 0 -- -- 89
2021-01-06 05:00:00 -4.8 2 Nordeste 7 Este 0 -- -- 88
2021-01-06 04:00:00 -4.6 4 Nordeste 9 Este 0 -- -- 88
2021-01-06 03:00:00 -4.5 4 Nordeste 6 Nordeste 0 -- -- 88
2021-01-06 02:00:00 -4.2 3 Nordeste 5 Nordeste 0 -- -- 88
2021-01-06 01:00:00 -4.2 2 Nordeste 5 Este 0 -- -- 86
2021-01-06 00:00:00 -3.2 4 Este 7 Nordeste 0 -- -- 85
2021-01-05 23:00:00 -2.7 3 Este 10 Nordeste 0 -- -- 83
2021-01-05 22:00:00 -3.4 3 Norte 4 Nordeste 0 -- -- 83
2021-01-05 21:00:00 -2.3 2 Nordeste 4 Norte 0 -- -- 79
2021-01-05 20:00:00 -0.9 0 Calma 3 Sur 0 -- -- 75
2021-01-05 19:00:00 1.4 0 Calma 5 Sudoeste 0 -- -- 65
2021-01-05 18:00:00 5.1 4 Sudoeste 8 Sudoeste 0 -- -- 54
2021-01-05 17:00:00 7 5 Sudoeste 10 Sudoeste 0 -- -- 48
2021-01-05 16:00:00 6.9 5 Oeste 11 Sur 0 -- -- 45
2021-01-05 15:00:00 6.3 5 Sudoeste 17 Sudoeste 0 -- -- 50
2021-01-05 14:00:00 5.1 7 Oeste 14 Sudoeste 0 -- -- 61
2021-01-05 13:00:00 4.4 3 Sudoeste 8 Oeste 0 -- -- 66
2021-01-05 12:00:00 2.1 4 Sudoeste 8 Sudoeste 0 -- -- 74
2021-01-05 11:00:00 -0.4 3 Sudoeste 8 Sudoeste 0 -- -- 83
2021-01-05 10:00:00 -2.7 0 Calma 5 Nordeste 0 -- -- 89
2021-01-05 09:00:00 -5.4 3 Este 5 Este 0 -- -- 92
2021-01-05 08:00:00 -4.9 2 Nordeste 8 Nordeste 0 -- -- 91
2021-01-05 07:00:00 -5.3 3 Este 5 Nordeste 0 -- -- 91
2021-01-05 06:00:00 -5.7 0 Calma 5 Nordeste 0 -- -- 90
2021-01-05 05:00:00 -4.9 3 Este 8 Nordeste 0 -- -- 90
2021-01-05 04:00:00 -4.8 0 Calma 4 Nordeste 0 -- -- 90
2021-01-05 03:00:00 -4.8 0 Calma 3 Norte 0 -- -- 87
2021-01-05 02:00:00 -4.1 0 Calma 4 Sudeste 0 -- -- 88
2021-01-05 01:00:00 -3.5 0 Calma 3 Noroeste 0 -- -- 87
2021-01-05 00:00:00 -3.1 0 Calma 3 Sur 0 -- -- 86
2021-01-04 23:00:00 -1.6 0 Calma 5 Oeste 0 -- -- 83
2021-01-04 22:00:00 -1.8 0 Calma 4 Sudoeste 0 -- -- 81
2021-01-04 21:00:00 -0.7 3 Norte 7 Sudeste 0 -- -- 77
2021-01-04 20:00:00 0.7 0 Calma 5 Sudoeste 0 -- -- 72
2021-01-04 19:00:00 2.3 4 Sudeste 13 Oeste 0 -- -- 66
2021-01-04 18:00:00 4.8 11 Sudoeste 23 Oeste 0 -- -- 55
2021-01-04 17:00:00 7 12 Sudoeste 27 Oeste 0 -- -- 53
2021-01-04 16:00:00 6.8 20 Sudoeste 32 Sudoeste 0 -- -- 52
2021-01-04 15:00:00 6.8 18 Sudoeste 32 Oeste 0 -- -- 56
2021-01-04 14:00:00 6.8 20 Sudoeste 29 Sudoeste 0 -- -- 57
2021-01-04 13:00:00 6.1 14 Sudoeste 29 Sudoeste 0 -- -- 61
2021-01-04 12:00:00 4.7 10 Sudoeste 18 Sudoeste 0 -- -- 70
2021-01-04 11:00:00 2.4 11 Sudoeste 17 Sudoeste 0 -- -- 81
2021-01-04 10:00:00 0.1 0 Calma 3 Oeste 0 -- -- 91
2021-01-04 09:00:00 -2.9 2 Oeste 5 Sudoeste 0 -- -- 91
2021-01-04 08:00:00 -2.1 0 Calma 9 Sudoeste 0 -- -- 91
2021-01-04 07:00:00 -1.4 8 Sudoeste 14 Sudoeste 0 -- -- 91
2021-01-04 06:00:00 -2.8 5 Sudoeste 8 Sur 0 -- -- 90
2021-01-04 05:00:00 -1.1 5 Oeste 10 Sudoeste 0 -- -- 91
2021-01-04 04:00:00 -1 5 Oeste 10 Sudoeste 0 -- -- 92
2021-01-04 03:00:00 -1.8 0 Calma 5 Sudoeste 0 -- -- 87
2021-01-04 02:00:00 -1 0 Calma 8 Sudoeste 0 -- -- 88
2021-01-04 01:00:00 -0.3 3 Oeste 9 Sudoeste 0 -- -- 84
2021-01-04 00:00:00 0.8 5 Oeste 15 Sudoeste 0 -- -- 83
2021-01-03 23:00:00 -0.5 6 Sudoeste 9 Sudoeste 0 -- -- 81
2021-01-03 22:00:00 0.7 0 Calma 17 Sudoeste 0 -- -- 77
2021-01-03 21:00:00 1 9 Sur 12 Sudoeste 0 -- -- 73
2021-01-03 20:00:00 3 4 Oeste 18 Sudoeste 0 -- -- 68
2021-01-03 19:00:00 4.1 10 Sudoeste 24 Sudoeste 0 -- -- 65
2021-01-03 18:00:00 5.5 14 Sudoeste 31 Sudoeste 0 -- -- 55
2021-01-03 17:00:00 7.6 17 Sudoeste 28 Oeste 0 -- -- 48
2021-01-03 16:00:00 8.7 17 Sudoeste 29 Sudoeste 0 -- -- 45
2021-01-03 15:00:00 8.5 18 Oeste 31 Sudoeste 0 -- -- 46
2021-01-03 14:00:00 7.7 16 Oeste 30 Oeste 0 -- -- 49
2021-01-03 13:00:00 7 14 Oeste 26 Sudoeste 0 -- -- 54
2021-01-03 12:00:00 4.5 2 Sudeste 6 Sudeste 0 -- -- 67
2021-01-03 11:00:00 0.4 0 Calma 4 Sudoeste 0 -- -- 84
2021-01-03 10:00:00 -2.6 0 Calma 3 Este 0 -- -- 90
2021-01-03 09:00:00 -4.8 0 Calma 3 Oeste 0 -- -- 92
2021-01-03 08:00:00 -5.5 0 Calma 3 Sudoeste 0 -- -- 91
2021-01-03 07:00:00 -5.8 0 Calma 8 Sur 0 -- -- 90
2021-01-03 06:00:00 -5.4 0 Calma 4 Nordeste 0 -- -- 89
2021-01-03 05:00:00 -5 0 Calma 8 Sudoeste 0 -- -- 90
2021-01-03 04:00:00 -5.2 0 Calma 4 Nordeste 0 -- -- 88
2021-01-03 03:00:00 -4.4 2 Sudeste 8 Sudoeste 0 -- -- 86
2021-01-03 02:00:00 -3.4 6 Oeste 9 Sudoeste 0 -- -- 87
2021-01-03 01:00:00 -3.5 0 Calma 9 Oeste 0 -- -- 85
2021-01-03 00:00:00 -2.9 3 Oeste 8 Sudoeste 0 -- -- 84
2021-01-02 23:00:00 -2.8 5 Sudoeste 9 Oeste 0 -- -- 83
2021-01-02 22:00:00 -2 0 Calma 9 Noroeste 0 -- -- 76
2021-01-02 21:00:00 -0.7 6 Sudoeste 11 Sudoeste 0 -- -- 72
2021-01-02 20:00:00 2.3 2 Norte 26 Norte 0 -- -- 61
2021-01-02 19:00:00 2.8 10 Norte 17 Norte 0 -- -- 58
2021-01-02 18:00:00 3.2 4 Norte 13 Noroeste 0 -- -- 57
2021-01-02 17:00:00 4.4 10 Norte 34 Noroeste 0 -- -- 53
2021-01-02 16:00:00 5 17 Norte 30 Norte 0 -- -- 51
2021-01-02 15:00:00 5.7 18 Norte 30 Norte 0 -- -- 50
2021-01-02 14:00:00 6.5 16 Norte 29 Norte 0 -- -- 48